Theta_e
306 303 302 301 301 301 299 298 297 296 296 295 295 294 294 294 295 294 294 295 296 296 296 296 296 296 296 296 297 296 296 295 293 294 295 294 293 293 292 293 292 290
303 303 301 300 300 300 299 300 299 301 299 297 296 296 295 295 294 294 294 294 294 295 295 295 295 295 295 295 295 294 292 292 291 293 292 292 291 292 291 291 290 289
301 301 300 300 301 299 299 299 299 299 298 298 298 298 296 295 293 293 293 293 293 293 293 293 293 293 293 293 293 292 291 290 290 291 291 290 290 289 289 289 289 288
301 301 300 299 300 300 300 299 300 299 297 297 296 296 295 294 293 292 292 291 292 292 292 292 292 292 292 292 292 291 290 290 290 290 289 289 289 288 288 288 287 286
300 299 297 297 299 298 297 297 296 296 295 296 294 293 292 292 292 291 290 291 291 290 290 290 291 291 291 291 291 290 289 289 289 289 288 287 287 287 286 286 286 285
298 298 297 296 296 295 294 294 294 293 293 292 292 291 290 291 290 290 290 290 290 290 289 289 289 289 289 290 289 289 288 287 288 288 286 285 285 285 285 285 284 283
297 298 296 295 296 294 293 292 292 292 291 291 289 289 289 289 289 289 289 289 289 289 288 288 288 288 289 288 288 287 286 286 286 285 284 283 284 283 284 284 283 282
297 296 298 295 294 292 291 291 290 290 290 289 288 288 289 289 289 289 289 289 289 288 288 288 288 287 287 287 286 285 284 285 284 284 283 283 282 282 282 283 282 280
296 296 296 294 294 291 290 290 290 289 289 288 288 288 289 289 289 288 288 289 288 288 288 287 287 286 286 285 285 284 283 284 285 284 283 282 282 282 281 281 280 280
296 295 294 294 294 292 290 289 289 288 288 288 287 287 287 288 289 288 288 288 287 287 286 286 285 285 284 285 284 284 283 283 283 283 283 282 282 281 280 280 280 279
295 295 295 293 292 290 289 289 288 287 287 287 287 286 287 287 287 287 287 287 287 286 286 285 284 284 284 284 284 284 283 283 283 283 283 282 281 280 281 280 280 279
295 293 293 291 291 289 289 288 287 286 286 286 286 286 286 286 286 286 286 286 286 285 285 284 284 284 284 283 283 283 283 283 283 282 282 281 280 280 280 280 280 280
294 293 292 291 291 290 289 287 286 286 286 285 286 286 285 285 285 285 285 285 285 285 284 284 284 284 284 283 283 283 282 282 281 281 281 280 280 279 279 279 280 280
294 293 292 291 290 290 288 287 286 286 285 286 286 285 285 285 284 284 285 285 285 284 284 284 284 283 283 283 282 282 282 281 281 280 280 279 279 279 279 279 279 280
294 293 292 291 290 289 287 286 285 285 285 285 285 285 285 285 284 284 284 284 284 284 284 284 283 283 283 282 281 281 282 281 281 280 279 278 278 278 279 279 279 280
294 293 291 290 289 288 287 286 285 285 284 284 284 284 284 284 284 284 284 284 283 283 283 283 282 283 283 285 284 282 281 282 281 280 279 279 278 278 278 279 279 280
292 291 290 290 289 288 287 286 286 285 284 284 284 284 284 284 283 283 284 284 283 283 282 282 282 281 284 286 286 286 282 281 280 280 280 279 278 278 277 278 279 280
291 291 290 290 289 287 286 286 285 285 285 284 284 284 284 284 283 283 283 283 283 282 282 281 281 283 286 286 286 286 284 281 281 280 279 279 279 278 278 279 279 279
291 290 290 289 288 287 286 286 285 285 284 284 284 284 284 283 283 283 282 282 282 281 281 281 280 285 286 287 287 286 285 283 281 280 279 279 279 279 279 279 279 279
291 290 289 289 288 287 286 285 285 284 284 284 284 284 283 283 283 282 282 282 281 281 281 280 280 284 286 287 287 286 286 284 281 280 280 280 279 279 279 279 280 280
290 290 289 289 287 286 285 285 284 284 284 284 284 283 283 282 282 282 282 282 281 281 280 280 279 284 286 287 287 287 286 283 281 281 280 280 279 279 279 280 280 280
290 290 289 288 286 285 285 284 284 284 284 284 283 283 283 283 282 282 282 281 281 280 280 279 279 284 286 286 287 287 287 282 281 280 280 280 279 279 280 280 281 281
289 289 288 286 286 285 284 284 284 284 284 284 283 282 282 282 282 281 282 281 281 280 280 279 279 283 285 286 287 287 286 283 281 280 280 279 279 280 279 280 280 280
289 289 287 286 285 285 285 284 284 284 284 284 282 282 281 281 282 281 282 282 281 280 280 280 280 281 285 286 287 287 286 282 280 279 279 279 280 280 280 280 280 282
289 288 287 286 285 285 285 284 284 284 284 284 283 283 282 282 282 281 281 281 281 280 281 280 280 281 284 286 286 287 286 283 281 280 280 279 279 279 280 280 280 281
288 287 286 285 285 285 285 285 285 285 284 283 283 283 283 282 282 281 281 281 281 280 280 280 279 279 282 285 286 287 286 284 283 280 280 279 280 280 280 280 280 281
Wind_Speed
8 8 6 6 6 5 7 7 7 9 8 8 7 8 7 7 9 9 8 7 7 6 6 6 6 6 5 6 6 6 6 6 5 5 5 5 5 5 5 5 5 5
7 9 8 5 4 4 6 7 6 8 8 7 7 8 7 6 7 8 8 7 7 7 7 6 6 6 7 6 6 6 6 6 6 3 6 6 6 6 6 6 6 5
7 8 7 9 8 8 8 7 6 6 6 7 7 8 7 6 7 7 7 7 7 7 7 7 7 7 6 6 7 6 6 7 7 5 6 6 6 6 6 6 5 5
9 10 8 8 8 8 8 8 7 7 5 6 6 5 5 4 6 7 7 8 7 7 7 7 7 6 6 7 7 6 7 7 6 7 7 5 5 6 6 6 6 6
11 11 9 7 8 8 7 8 8 7 7 6 4 5 5 6 6 6 7 8 7 7 7 7 7 7 7 7 6 7 7 7 6 7 7 7 5 6 5 6 7 7
9 10 9 9 9 7 9 8 8 8 6 5 5 5 6 6 6 7 8 9 8 8 8 7 8 7 7 7 7 7 7 6 6 7 8 8 7 5 5 6 7 7
9 11 10 7 9 9 10 9 8 8 7 6 5 6 7 8 7 9 8 8 10 9 10 9 9 9 7 8 7 8 7 8 8 8 9 7 8 7 5 6 6 7
11 9 11 9 10 9 10 9 8 8 8 7 8 7 8 8 8 9 8 9 9 10 10 9 9 9 8 8 8 9 7 7 7 9 9 9 8 7 6 4 6 7
10 11 10 11 11 9 11 10 9 9 8 9 9 8 8 8 9 9 9 9 9 10 10 10 10 9 8 9 9 11 10 9 7 9 9 10 9 8 6 6 7 6
12 10 11 12 12 10 11 10 9 9 8 9 9 8 9 8 8 10 9 9 10 10 10 10 10 9 9 9 10 10 11 10 8 8 8 9 9 8 6 6 8 7
11 12 13 12 12 10 12 10 10 9 9 10 9 9 9 9 8 9 9 10 10 11 11 10 10 10 10 10 9 9 10 9 9 8 8 8 9 9 7 7 7 7
11 11 13 13 14 11 11 11 11 11 11 10 10 11 10 10 10 10 10 10 10 10 11 11 11 11 11 11 10 9 8 8 8 8 9 9 9 8 6 7 7 7
13 12 10 11 12 13 12 11 12 11 12 12 11 11 12 11 10 10 9 9 10 10 10 11 11 10 10 10 10 9 10 9 8 8 8 8 7 6 7 7 7 6
12 11 11 11 10 12 13 13 13 12 12 11 11 12 12 12 12 12 10 9 10 10 10 10 10 10 10 10 10 10 10 10 10 9 7 7 7 8 7 7 6 6
12 11 10 11 12 12 13 14 12 12 12 11 11 10 9 11 11 11 11 10 10 10 10 10 11 11 10 11 11 10 10 11 11 11 9 8 7 6 7 7 6 5
12 11 11 12 13 13 14 14 12 12 11 11 11 10 10 9 10 11 11 12 12 11 10 9 10 9 12 17 15 13 12 10 10 10 10 9 8 8 7 7 7 6
11 13 12 13 13 12 12 14 13 12 12 12 12 12 12 10 9 11 11 11 13 14 14 11 10 8 14 13 13 13 12 12 11 9 9 11 10 10 9 8 7 6
13 13 13 13 12 13 13 11 10 10 11 11 11 10 9 7 9 11 11 11 11 12 13 12 11 12 15 15 15 16 13 12 10 9 9 10 9 9 8 9 9 7
12 13 13 12 13 11 11 10 10 10 10 10 11 9 8 10 11 10 10 9 10 10 11 10 8 12 17 18 17 17 16 12 9 9 9 8 10 10 10 9 8 7
13 12 12 12 10 10 11 11 11 11 10 9 9 9 9 9 8 9 7 8 10 10 9 8 10 15 18 18 17 17 16 13 8 10 9 10 11 11 9 10 9 9
13 13 13 10 10 10 11 12 12 10 10 9 9 10 10 11 11 11 10 8 7 8 9 9 7 13 17 17 16 16 18 13 9 9 8 7 8 9 10 10 10 9
13 13 11 10 12 11 11 11 11 12 11 9 9 8 7 6 6 7 9 11 11 11 10 9 8 14 16 17 18 18 19 10 8 9 8 7 7 8 9 8 9 9
13 13 10 10 12 11 12 12 12 11 9 8 10 9 10 10 10 11 10 10 10 9 9 8 8 14 18 18 19 21 15 7 8 7 7 7 8 9 8 8 8 8
13 12 10 11 12 13 12 10 10 9 10 10 12 11 11 11 10 9 9 9 11 11 11 10 8 12 19 18 18 19 11 9 8 8 8 7 7 8 6 7 9 12
10 10 10 11 12 11 11 12 12 12 10 9 9 7 9 7 8 8 8 8 9 9 10 10 7 9 16 17 16 17 13 7 7 5 6 7 8 6 6 5 7 9
8 10 10 12 12 10 9 9 7 6 7 7 7 6 5 7 8 8 9 8 7 8 8 8 6 5 10 17 16 18 15 8 7 9 9 9 7 6 5 6 7 7
Wind_Direction
195 182 175 176 178 173 171 178 180 179 178 179 180 178 177 173 151 163 165 162 156 145 141 139 133 124 123 128 133 128 129 121 114 115 111 108 106 111 110 104 95 107
183 178 182 171 178 169 186 194 187 192 183 183 184 185 178 155 151 160 157 147 141 141 138 139 140 135 139 141 137 128 120 117 107 106 119 117 118 112 111 112 108 108
177 184 179 190 191 190 192 190 169 184 183 189 185 190 172 154 152 156 146 139 141 139 140 141 139 140 142 136 136 130 130 127 127 130 124 127 128 124 122 116 105 101
188 196 192 189 190 193 192 197 198 187 185 184 178 146 121 130 150 145 137 138 137 138 140 139 139 140 139 141 140 128 128 130 134 134 124 115 118 125 122 113 108 99
189 192 188 180 194 191 190 190 184 182 188 194 125 121 129 143 147 142 142 143 139 141 141 141 140 139 142 144 141 130 132 127 134 137 133 127 120 120 119 121 121 108
183 190 189 185 186 157 187 186 170 183 181 184 169 144 150 148 152 155 154 150 147 143 145 142 143 143 149 144 137 133 134 133 142 142 133 129 122 113 123 124 119 111
179 188 187 173 185 178 176 171 175 180 183 179 146 168 160 165 161 163 160 157 150 151 150 151 149 150 150 145 137 137 134 136 143 143 133 127 125 120 117 119 115 112
184 177 193 189 194 183 187 186 180 182 178 167 177 175 170 173 167 167 163 157 155 153 151 151 151 151 149 146 140 134 126 141 144 142 134 130 127 126 120 111 118 121
186 193 190 192 195 182 189 185 183 181 176 179 180 174 173 175 169 170 168 161 157 157 154 153 154 151 152 147 145 144 141 151 152 146 139 136 134 136 127 119 124 132
192 184 182 196 199 192 191 182 176 180 176 183 180 173 175 177 172 172 171 168 163 161 157 155 156 154 151 151 150 150 151 152 153 142 136 139 141 135 130 139 145 137
186 191 195 196 195 187 189 178 177 176 180 183 177 176 176 173 175 177 173 174 171 165 160 157 159 155 151 150 152 156 153 150 148 144 135 133 135 141 145 141 149 137
187 180 191 189 191 183 182 180 178 180 184 186 183 179 176 180 178 180 178 176 168 166 162 158 157 159 157 157 156 149 144 145 143 135 132 135 139 138 133 147 147 142
189 186 181 185 189 190 179 174 181 180 183 186 183 179 178 179 182 179 183 174 168 165 165 161 160 160 157 155 149 148 149 145 135 134 134 133 126 120 137 147 144 140
191 184 179 185 182 186 186 183 182 183 186 186 181 182 182 181 181 180 178 175 172 170 167 163 161 161 160 156 156 154 153 148 143 143 134 125 120 140 148 149 144 143
188 186 183 180 181 184 183 185 183 182 180 181 183 186 189 186 181 180 175 175 172 172 165 166 170 170 166 163 159 159 152 151 152 150 139 134 134 134 145 148 143 157
189 185 183 173 177 183 185 183 181 179 179 179 183 186 186 187 184 183 180 177 174 171 167 171 177 179 177 171 168 162 158 140 136 152 154 145 138 143 148 149 153 161
186 186 181 183 184 179 176 179 179 179 180 183 184 185 185 185 183 185 186 182 178 175 176 179 180 178 171 167 160 153 152 154 158 158 156 157 161 162 162 160 159 172
191 184 189 192 185 184 175 175 176 180 184 185 183 182 187 181 186 192 193 186 183 181 178 179 182 172 165 165 163 162 160 160 161 157 160 165 166 166 166 160 169 176
190 188 192 189 189 183 175 172 176 179 183 183 184 179 173 182 189 186 193 184 182 175 177 179 178 161 170 171 170 169 166 158 163 160 159 165 171 174 170 170 173 178
191 188 191 188 182 175 175 174 174 181 182 182 179 176 178 180 181 184 182 183 179 177 177 181 184 176 175 175 172 168 166 162 164 164 169 176 177 176 173 175 177 180
190 189 189 184 176 172 174 176 175 174 177 177 176 180 179 180 180 180 182 176 172 179 187 190 187 179 179 173 169 171 171 163 171 173 176 175 176 178 182 177 176 181
188 187 186 172 167 168 173 176 177 175 172 166 167 175 175 168 169 169 176 180 184 181 188 188 178 181 182 178 180 179 172 171 175 178 176 173 175 180 182 168 176 186
178 182 180 167 168 170 175 176 175 170 166 162 171 177 174 175 178 182 183 182 184 188 189 189 190 186 186 185 185 181 175 162 170 175 173 172 183 182 182 184 191 193
174 178 173 167 174 178 174 172 171 171 173 172 175 174 181 183 180 175 178 182 184 190 191 187 193 190 191 190 185 181 170 171 175 172 179 182 174 182 184 193 201 204
168 172 167 169 176 178 172 171 177 179 174 168 175 172 181 175 173 175 178 185 188 186 187 192 189 187 190 189 184 183 175 168 166 157 156 180 185 192 194 195 211 217
165 168 169 171 174 171 173 174 160 136 153 152 164 153 153 167 176 179 178 178 169 173 182 189 173 169 188 190 189 189 172 163 171 174 183 187 189 178 172 210 219 226